Time,TemperatureF,DewpointF,PressureIn,WindDirection,WindDirectionDegrees,WindSpeedMPH,WindSpeedGustMPH,Humidity,HourlyPrecipIn,Conditions,Clouds,dailyrainin,SoftwareType,DateUTC
2013-02-22 00:00:00,24.4,19.4,29.54,East,94,2.0,4.0,81,0.00,,,0.00,WeatherCatV1.02B3,2013-02-22 05:00:00,
2013-02-22 00:05:00,24.3,19.0,29.55,East,95,4.0,11.0,80,0.00,,,0.00,WeatherCatV1.02B3,2013-02-22 05:05:00,
2013-02-22 00:10:00,24.1,18.8,29.55,ESE,119,4.0,12.0,80,0.00,,,0.00,WeatherCatV1.02B3,2013-02-22 05:10:00,
2013-02-22 00:15:00,24.0,18.7,29.55,NE,51,3.0,6.0,80,0.00,,,0.00,WeatherCatV1.02B3,2013-02-22 05:15:00,
2013-02-22 00:20:00,24.0,19.0,29.55,ESE,107,3.0,5.0,81,0.00,,,0.00,WeatherCatV1.02B3,2013-02-22 05:20:00,
2013-02-22 00:25:00,23.9,18.6,29.55,ESE,110,2.0,6.0,80,0.00,,,0.00,WeatherCatV1.02B3,2013-02-22 05:25:00,
2013-02-22 00:30:00,23.8,18.5,29.56,East,86,7.0,7.0,80,0.00,,,0.00,WeatherCatV1.02B3,2013-02-22 05:30:00,
2013-02-22 00:35:00,23.8,18.5,29.55,East,94,2.0,7.0,80,0.00,,,0.00,WeatherCatV1.02B3,2013-02-22 05:35:00,
2013-02-22 00:40:00,23.8,18.5,29.56,ESE,120,3.0,6.0,80,0.00,,,0.00,WeatherCatV1.02B3,2013-02-22 05:40:00,
2013-02-22 00:45:00,23.7,18.7,29.55,NE,47,2.0,5.0,81,0.00,,,0.00,WeatherCatV1.02B3,2013-02-22 05:45:00,
2013-02-22 00:50:00,23.7,18.5,29.55,ESE,116,3.0,10.0,80,0.00,,,0.00,WeatherCatV1.02B3,2013-02-22 05:50:00,
2013-02-22 00:55:00,23.6,18.6,29.55,ESE,113,2.0,4.0,81,0.00,,,0.00,WeatherCatV1.02B3,2013-02-22 05:55:00,
2013-02-22 01:00:00,23.5,18.5,29.54,ENE,75,7.0,7.0,81,0.00,,,0.00,WeatherCatV1.02B3,2013-02-22 06:00:00,
2013-02-22 01:05:00,23.2,18.8,29.54,East,82,5.0,13.0,83,0.00,,,0.00,WeatherCatV1.02B3,2013-02-22 06:05:00,
2013-02-22 01:10:00,22.8,19.3,29.53,ESE,105,4.0,6.0,86,0.00,,,0.00,WeatherCatV1.02B3,2013-02-22 06:10:00,
2013-02-22 01:15:00,22.6,19.3,29.53,ENE,76,3.0,5.0,87,0.00,,,0.00,WeatherCatV1.02B3,2013-02-22 06:15:00,
2013-02-22 01:20:00,22.5,19.2,29.54,East,95,2.0,9.0,87,0.00,,,0.00,WeatherCatV1.02B3,2013-02-22 06:20:00,
2013-02-22 01:25:00,22.4,19.4,29.53,SE,131,1.0,4.0,88,0.00,,,0.00,WeatherCatV1.02B3,2013-02-22 06:25:00,
2013-02-22 01:30:00,22.3,19.6,29.53,NE,52,4.0,7.0,89,0.00,,,0.00,WeatherCatV1.02B3,2013-02-22 06:30:00,
2013-02-22 01:35:00,22.1,19.6,29.53,SE,145,3.0,5.0,90,0.00,,,0.00,WeatherCatV1.02B3,2013-02-22 06:35:00,
2013-02-22 01:40:00,22.0,19.5,29.52,ENE,73,3.0,9.0,90,0.00,,,0.00,WeatherCatV1.02B3,2013-02-22 06:40:00,
2013-02-22 01:45:00,22.0,19.8,29.51,NE,43,9.0,10.0,91,0.00,,,0.00,WeatherCatV1.02B3,2013-02-22 06:45:00,
2013-02-22 01:50:00,21.9,19.4,29.50,NE,46,6.0,14.0,90,0.00,,,0.00,WeatherCatV1.02B3,2013-02-22 06:50:00,
2013-02-22 01:55:00,22.0,19.5,29.50,NE,56,6.0,9.0,90,0.00,,,0.00,WeatherCatV1.02B3,2013-02-22 06:55:00,
2013-02-22 02:00:00,22.0,19.5,29.50,ESE,109,2.0,8.0,90,0.00,,,0.00,WeatherCatV1.02B3,2013-02-22 07:00:00,
2013-02-22 02:05:00,22.1,19.6,29.49,ENE,71,3.0,5.0,90,0.00,,,0.00,WeatherCatV1.02B3,2013-02-22 07:05:00,
2013-02-22 02:10:00,22.2,19.7,29.49,NE,48,5.0,11.0,90,0.00,,,0.00,WeatherCatV1.02B3,2013-02-22 07:10:00,
2013-02-22 02:15:00,22.1,19.6,29.49,NE,39,5.0,5.0,90,0.00,,,0.00,WeatherCatV1.02B3,2013-02-22 07:15:00,
2013-02-22 02:20:00,22.1,19.9,29.49,East,95,3.0,6.0,91,0.00,,,0.00,WeatherCatV1.02B3,2013-02-22 07:20:00,
2013-02-22 02:25:00,22.1,20.1,29.49,NNE,33,4.0,9.0,92,0.00,,,0.00,WeatherCatV1.02B3,2013-02-22 07:25:00,
2013-02-22 02:30:00,22.1,20.1,29.49,ENE,65,14.0,14.0,92,0.00,,,0.00,WeatherCatV1.02B3,2013-02-22 07:30:00,
2013-02-22 02:35:00,22.1,20.4,29.49,ENE,67,2.0,3.0,93,0.00,,,0.00,WeatherCatV1.02B3,2013-02-22 07:35:00,
2013-02-22 02:40:00,22.1,20.4,29.49,East,83,3.0,4.0,93,0.00,,,0.00,WeatherCatV1.02B3,2013-02-22 07:40:00,
2013-02-22 02:45:00,22.1,20.4,29.49,SE,135,2.0,5.0,93,0.00,,,0.00,WeatherCatV1.02B3,2013-02-22 07:45:00,
2013-02-22 02:50:00,22.0,20.3,29.48,East,97,2.0,4.0,93,0.00,,,0.00,WeatherCatV1.02B3,2013-02-22 07:50:00,
2013-02-22 02:55:00,22.0,20.3,29.47,East,84,3.0,7.0,93,0.00,,,0.00,WeatherCatV1.02B3,2013-02-22 07:55:00,
2013-02-22 03:00:00,21.9,20.2,29.47,ENE,78,3.0,6.0,93,0.00,,,0.00,WeatherCatV1.02B3,2013-02-22 08:00:00,
2013-02-22 03:05:00,21.9,20.2,29.46,ENE,77,4.0,11.0,93,0.00,,,0.00,WeatherCatV1.02B3,2013-02-22 08:05:00,
2013-02-22 03:10:00,21.8,20.1,29.46,NE,47,1.0,4.0,93,0.00,,,0.00,WeatherCatV1.02B3,2013-02-22 08:10:00,
2013-02-22 03:15:00,21.8,20.1,29.45,East,85,2.0,6.0,93,0.00,,,0.00,WeatherCatV1.02B3,2013-02-22 08:15:00,
2013-02-22 03:20:00,21.8,20.3,29.45,SSE,152,2.0,5.0,94,0.00,,,0.00,WeatherCatV1.02B3,2013-02-22 08:20:00,
2013-02-22 03:25:00,21.8,20.3,29.45,East,89,4.0,5.0,94,0.00,,,0.00,WeatherCatV1.02B3,2013-02-22 08:25:00,
2013-02-22 03:30:00,21.8,20.3,29.45,ENE,71,4.0,6.0,94,0.00,,,0.00,WeatherCatV1.02B3,2013-02-22 08:30:00,
2013-02-22 03:35:00,21.9,20.4,29.44,East,99,2.0,4.0,94,0.00,,,0.00,WeatherCatV1.02B3,2013-02-22 08:35:00,
2013-02-22 03:40:00,21.9,20.4,29.44,East,84,1.0,4.0,94,0.00,,,0.00,WeatherCatV1.02B3,2013-02-22 08:40:00,
2013-02-22 03:45:00,21.9,20.4,29.43,East,79,1.0,9.0,94,0.00,,,0.00,WeatherCatV1.02B3,2013-02-22 08:45:00,
2013-02-22 03:50:00,21.9,20.4,29.43,NE,39,2.0,7.0,94,0.00,,,0.00,WeatherCatV1.02B3,2013-02-22 08:50:00,
2013-02-22 03:55:00,21.9,20.4,29.43,ESE,105,2.0,5.0,94,0.00,,,0.00,WeatherCatV1.02B3,2013-02-22 08:55:00,
2013-02-22 04:00:00,22.0,20.5,29.43,East,96,2.0,6.0,94,0.00,,,0.00,WeatherCatV1.02B3,2013-02-22 09:00:00,
2013-02-22 04:05:00,22.0,20.5,29.42,East,101,2.0,8.0,94,0.00,,,0.00,WeatherCatV1.02B3,2013-02-22 09:05:00,
2013-02-22 04:10:00,22.1,20.6,29.42,SE,145,2.0,11.0,94,0.00,,,0.00,WeatherCatV1.02B3,2013-02-22 09:10:00,
2013-02-22 04:15:00,22.1,20.6,29.42,NE,43,3.0,4.0,94,0.00,,,0.00,WeatherCatV1.02B3,2013-02-22 09:15:00,
2013-02-22 04:20:00,22.2,20.7,29.42,East,99,2.0,5.0,94,0.00,,,0.00,WeatherCatV1.02B3,2013-02-22 09:20:00,
2013-02-22 04:25:00,22.2,20.7,29.42,East,101,2.0,6.0,94,0.00,,,0.00,WeatherCatV1.02B3,2013-02-22 09:25:00,
2013-02-22 04:30:00,22.3,20.8,29.41,East,98,3.0,4.0,94,0.00,,,0.00,WeatherCatV1.02B3,2013-02-22 09:30:00,
2013-02-22 04:35:00,22.3,20.8,29.41,ESE,112,3.0,8.0,94,0.00,,,0.00,WeatherCatV1.02B3,2013-02-22 09:35:00,
2013-02-22 04:40:00,22.4,20.9,29.41,ESE,120,2.0,5.0,94,0.00,,,0.00,WeatherCatV1.02B3,2013-02-22 09:40:00,
2013-02-22 04:45:00,22.5,21.0,29.42,ESE,102,2.0,3.0,94,0.00,,,0.00,WeatherCatV1.02B3,2013-02-22 09:45:00,
2013-02-22 04:50:00,22.6,21.1,29.41,ESE,118,1.0,2.0,94,0.00,,,0.00,WeatherCatV1.02B3,2013-02-22 09:50:00,
2013-02-22 04:55:00,22.6,21.1,29.41,ENE,68,2.0,5.0,94,0.00,,,0.00,WeatherCatV1.02B3,2013-02-22 09:55:00,
2013-02-22 05:00:00,22.7,21.2,29.41,ENE,78,2.0,2.0,94,0.00,,,0.00,WeatherCatV1.02B3,2013-02-22 10:00:00,
2013-02-22 05:05:00,22.7,21.2,29.42,East,101,3.0,4.0,94,0.00,,,0.00,WeatherCatV1.02B3,2013-02-22 10:05:00,
2013-02-22 05:10:00,22.7,21.2,29.41,East,93,3.0,4.0,94,0.00,,,0.00,WeatherCatV1.02B3,2013-02-22 10:10:00,
2013-02-22 05:15:00,22.7,21.2,29.41,East,89,2.0,6.0,94,0.00,,,0.00,WeatherCatV1.02B3,2013-02-22 10:15:00,
2013-02-22 05:20:00,22.7,21.2,29.41,East,87,3.0,4.0,94,0.00,,,0.00,WeatherCatV1.02B3,2013-02-22 10:20:00,
2013-02-22 05:25:00,22.7,21.2,29.41,East,85,3.0,4.0,94,0.00,,,0.00,WeatherCatV1.02B3,2013-02-22 10:25:00,
2013-02-22 05:30:00,22.7,21.5,29.41,East,82,3.0,5.0,95,0.00,,,0.00,WeatherCatV1.02B3,2013-02-22 10:30:00,
2013-02-22 05:35:00,22.6,21.4,29.40,East,88,1.0,4.0,95,0.00,,,0.00,WeatherCatV1.02B3,2013-02-22 10:35:00,
2013-02-22 05:40:00,22.7,21.5,29.41,NE,47,1.0,4.0,95,0.00,,,0.00,WeatherCatV1.02B3,2013-02-22 10:40:00,
2013-02-22 05:45:00,22.7,21.5,29.40,ESE,108,4.0,4.0,95,0.00,,,0.00,WeatherCatV1.02B3,2013-02-22 10:45:00,
2013-02-22 05:50:00,22.7,21.5,29.40,NNE,25,3.0,6.0,95,0.00,,,0.00,WeatherCatV1.02B3,2013-02-22 10:50:00,
2013-02-22 05:55:00,22.7,21.5,29.40,East,101,3.0,4.0,95,0.00,,,0.00,WeatherCatV1.02B3,2013-02-22 10:55:00,
2013-02-22 06:00:00,22.8,21.3,29.40,ESE,116,1.0,4.0,94,0.00,,,0.00,WeatherCatV1.02B3,2013-02-22 11:00:00,
2013-02-22 06:05:00,22.8,21.3,29.40,ESE,116,3.0,4.0,94,0.00,,,0.00,WeatherCatV1.02B3,2013-02-22 11:05:00,
2013-02-22 06:10:00,22.9,21.4,29.40,ESE,106,2.0,4.0,94,0.00,,,0.00,WeatherCatV1.02B3,2013-02-22 11:10:00,
2013-02-22 06:15:00,22.9,21.4,29.40,ESE,113,2.0,4.0,94,0.00,,,0.00,WeatherCatV1.02B3,2013-02-22 11:15:00,
2013-02-22 06:20:00,23.0,21.5,29.40,ENE,72,1.0,7.0,94,0.00,,,0.00,WeatherCatV1.02B3,2013-02-22 11:20:00,
2013-02-22 06:25:00,23.1,21.6,29.40,ESE,110,1.0,5.0,94,0.00,,,0.00,WeatherCatV1.02B3,2013-02-22 11:25:00,
2013-02-22 06:30:00,23.1,21.4,29.39,East,98,2.0,3.0,93,0.00,,,0.00,WeatherCatV1.02B3,2013-02-22 11:30:00,
2013-02-22 06:35:00,23.2,21.5,29.40,East,87,2.0,5.0,93,0.00,,,0.00,WeatherCatV1.02B3,2013-02-22 11:35:00,
2013-02-22 06:40:00,23.3,21.6,29.40,ENE,77,2.0,4.0,93,0.00,,,0.00,WeatherCatV1.02B3,2013-02-22 11:40:00,
2013-02-22 06:45:00,23.4,21.7,29.39,East,79,3.0,5.0,93,0.00,,,0.00,WeatherCatV1.02B3,2013-02-22 11:45:00,
2013-02-22 06:50:00,23.4,21.7,29.39,East,98,1.0,2.0,93,0.00,,,0.00,WeatherCatV1.02B3,2013-02-22 11:50:00,
2013-02-22 06:55:00,23.5,21.8,29.39,SE,138,5.0,6.0,93,0.00,,,0.00,WeatherCatV1.02B3,2013-02-22 11:55:00,
2013-02-22 07:00:00,23.5,21.8,29.39,ENE,63,4.0,4.0,93,0.00,,,0.00,WeatherCatV1.02B3,2013-02-22 12:00:00,
2013-02-22 07:05:00,23.6,21.9,29.39,East,96,2.0,5.0,93,0.00,,,0.00,WeatherCatV1.02B3,2013-02-22 12:05:00,
2013-02-22 07:10:00,23.7,21.7,29.39,ENE,65,2.0,5.0,92,0.00,,,0.00,WeatherCatV1.02B3,2013-02-22 12:10:00,
2013-02-22 07:15:00,23.8,22.1,29.39,East,94,1.0,3.0,93,0.00,,,0.00,WeatherCatV1.02B3,2013-02-22 12:15:00,
2013-02-22 07:20:00,23.8,21.8,29.39,ESE,117,1.0,6.0,92,0.00,,,0.00,WeatherCatV1.02B3,2013-02-22 12:20:00,
2013-02-22 07:25:00,23.9,21.9,29.38,NE,44,1.0,2.0,92,0.00,,,0.00,WeatherCatV1.02B3,2013-02-22 12:25:00,
2013-02-22 07:30:00,23.9,21.9,29.38,East,94,2.0,4.0,92,0.00,,,0.00,WeatherCatV1.02B3,2013-02-22 12:30:00,
2013-02-22 07:35:00,24.0,22.0,29.38,ENE,57,3.0,5.0,92,0.00,,,0.00,WeatherCatV1.02B3,2013-02-22 12:35:00,
2013-02-22 07:40:00,24.1,22.1,29.38,ENE,77,2.0,2.0,92,0.00,,,0.00,WeatherCatV1.02B3,2013-02-22 12:40:00,
2013-02-22 07:45:00,24.1,22.1,29.38,ESE,114,0.0,4.0,92,0.00,,,0.00,WeatherCatV1.02B3,2013-02-22 12:45:00,
2013-02-22 07:50:00,24.2,22.2,29.38,NE,56,3.0,3.0,92,0.00,,,0.00,WeatherCatV1.02B3,2013-02-22 12:50:00,
2013-02-22 07:55:00,24.2,22.2,29.38,East,96,2.0,4.0,92,0.00,,,0.00,WeatherCatV1.02B3,2013-02-22 12:55:00,
2013-02-22 08:00:00,24.4,22.4,29.39,East,82,2.0,2.0,92,0.00,,,0.00,WeatherCatV1.02B3,2013-02-22 13:00:00,
2013-02-22 08:05:00,24.4,22.4,29.39,East,86,2.0,4.0,92,0.00,,,0.00,WeatherCatV1.02B3,2013-02-22 13:05:00,
2013-02-22 08:10:00,24.6,22.6,29.39,East,98,2.0,4.0,92,0.00,,,0.00,WeatherCatV1.02B3,2013-02-22 13:10:00,
2013-02-22 08:15:00,24.7,22.7,29.39,East,82,2.0,3.0,92,0.00,,,0.00,WeatherCatV1.02B3,2013-02-22 13:15:00,
2013-02-22 08:20:00,24.8,22.8,29.39,East,86,2.0,2.0,92,0.00,,,0.00,WeatherCatV1.02B3,2013-02-22 13:20:00,
2013-02-22 08:25:00,24.9,22.9,29.38,SE,127,3.0,3.0,92,0.00,,,0.00,WeatherCatV1.02B3,2013-02-22 13:25:00,
2013-02-22 08:30:00,25.0,23.0,29.38,ESE,102,3.0,4.0,92,0.00,,,0.00,WeatherCatV1.02B3,2013-02-22 13:30:00,
2013-02-22 08:35:00,25.1,23.1,29.38,East,85,2.0,3.0,92,0.00,,,0.00,WeatherCatV1.02B3,2013-02-22 13:35:00,
2013-02-22 08:40:00,25.2,23.2,29.38,East,90,1.0,4.0,92,0.00,,,0.00,WeatherCatV1.02B3,2013-02-22 13:40:00,
2013-02-22 08:45:00,25.3,23.3,29.38,ESE,108,2.0,3.0,92,0.00,,,0.00,WeatherCatV1.02B3,2013-02-22 13:45:00,
2013-02-22 08:50:00,25.4,23.4,29.37,East,81,2.0,3.0,92,0.00,,,0.00,WeatherCatV1.02B3,2013-02-22 13:50:00,
2013-02-22 08:55:00,25.4,23.4,29.37,East,89,2.0,4.0,92,0.00,,,0.00,WeatherCatV1.02B3,2013-02-22 13:55:00,
2013-02-22 09:00:00,25.5,23.5,29.37,East,101,1.0,2.0,92,0.00,,,0.00,WeatherCatV1.02B3,2013-02-22 14:00:00,
2013-02-22 09:05:00,25.6,23.6,29.37,ESE,103,1.0,4.0,92,0.00,,,0.00,WeatherCatV1.02B3,2013-02-22 14:05:00,
2013-02-22 09:10:00,25.7,23.7,29.37,ESE,110,2.0,2.0,92,0.00,,,0.00,WeatherCatV1.02B3,2013-02-22 14:10:00,
2013-02-22 09:15:00,25.8,23.8,29.37,East,82,5.0,5.0,92,0.00,,,0.00,WeatherCatV1.02B3,2013-02-22 14:15:00,
2013-02-22 09:20:00,25.9,23.9,29.37,NE,50,2.0,3.0,92,0.00,,,0.00,WeatherCatV1.02B3,2013-02-22 14:20:00,
2013-02-22 09:25:00,26.0,24.0,29.37,East,87,1.0,2.0,92,0.00,,,0.00,WeatherCatV1.02B3,2013-02-22 14:25:00,
2013-02-22 09:30:00,26.1,23.8,29.36,East,96,3.0,5.0,91,0.00,,,0.00,WeatherCatV1.02B3,2013-02-22 14:30:00,
2013-02-22 09:35:00,26.2,23.9,29.36,ESE,110,1.0,3.0,91,0.00,,,0.00,WeatherCatV1.02B3,2013-02-22 14:35:00,
2013-02-22 09:40:00,26.3,24.0,29.36,ESE,109,2.0,3.0,91,0.00,,,0.00,WeatherCatV1.02B3,2013-02-22 14:40:00,
2013-02-22 09:45:00,26.5,24.2,29.36,ESE,109,3.0,3.0,91,0.00,,,0.00,WeatherCatV1.02B3,2013-02-22 14:45:00,
2013-02-22 09:50:00,26.6,24.3,29.36,East,81,2.0,3.0,91,0.00,,,0.00,WeatherCatV1.02B3,2013-02-22 14:50:00,
2013-02-22 09:55:00,26.6,24.3,29.36,East,86,1.0,6.0,91,0.00,,,0.00,WeatherCatV1.02B3,2013-02-22 14:55:00,
2013-02-22 10:00:00,26.7,24.4,29.36,East,88,2.0,4.0,91,0.00,,,0.00,WeatherCatV1.02B3,2013-02-22 15:00:00,
2013-02-22 10:05:00,26.8,24.5,29.36,ESE,116,1.0,2.0,91,0.00,,,0.00,WeatherCatV1.02B3,2013-02-22 15:05:00,
2013-02-22 10:10:00,26.9,24.6,29.37,ESE,110,3.0,3.0,91,0.00,,,0.00,WeatherCatV1.02B3,2013-02-22 15:10:00,
2013-02-22 10:15:00,27.0,24.7,29.37,ESE,105,1.0,2.0,91,0.00,,,0.00,WeatherCatV1.02B3,2013-02-22 15:15:00,
2013-02-22 10:20:00,27.1,24.8,29.36,ESE,120,2.0,2.0,91,0.00,,,0.00,WeatherCatV1.02B3,2013-02-22 15:20:00,
2013-02-22 10:25:00,27.2,25.2,29.36,ESE,113,2.0,2.0,92,0.00,,,0.00,WeatherCatV1.02B3,2013-02-22 15:25:00,
2013-02-22 10:30:00,27.4,25.1,29.36,ESE,105,2.0,2.0,91,0.00,,,0.00,WeatherCatV1.02B3,2013-02-22 15:30:00,
2013-02-22 10:35:00,27.5,25.5,29.36,East,93,3.0,3.0,92,0.00,,,0.00,WeatherCatV1.02B3,2013-02-22 15:35:00,
2013-02-22 10:40:00,27.6,25.3,29.37,ESE,122,1.0,2.0,91,0.00,,,0.00,WeatherCatV1.02B3,2013-02-22 15:40:00,
2013-02-22 10:45:00,27.8,25.8,29.37,East,80,0.0,1.0,92,0.00,,,0.00,WeatherCatV1.02B3,2013-02-22 15:45:00,
2013-02-22 10:50:00,27.9,25.9,29.37,ESE,110,1.0,3.0,92,0.00,,,0.00,WeatherCatV1.02B3,2013-02-22 15:50:00,
2013-02-22 10:55:00,28.0,26.0,29.37,ESE,103,1.0,3.0,92,0.00,,,0.00,WeatherCatV1.02B3,2013-02-22 15:55:00,
2013-02-22 11:00:00,28.0,26.0,29.36,SE,135,2.0,3.0,92,0.00,,,0.00,WeatherCatV1.02B3,2013-02-22 16:00:00,
2013-02-22 11:05:00,28.1,26.1,29.37,ENE,58,1.0,2.0,92,0.00,,,0.00,WeatherCatV1.02B3,2013-02-22 16:05:00,
2013-02-22 11:10:00,28.1,26.1,29.37,ENE,76,0.0,2.0,92,0.00,,,0.00,WeatherCatV1.02B3,2013-02-22 16:10:00,
2013-02-22 11:15:00,28.3,26.3,29.36,ESE,112,1.0,2.0,92,0.00,,,0.00,WeatherCatV1.02B3,2013-02-22 16:15:00,
2013-02-22 11:20:00,28.4,26.4,29.36,ESE,116,0.0,2.0,92,0.00,,,0.00,WeatherCatV1.02B3,2013-02-22 16:20:00,
2013-02-22 11:25:00,28.6,26.6,29.37,ESE,113,1.0,1.0,92,0.00,,,0.00,WeatherCatV1.02B3,2013-02-22 16:25:00,
2013-02-22 11:30:00,28.8,26.8,29.37,ENE,77,1.0,2.0,92,0.00,,,0.00,WeatherCatV1.02B3,2013-02-22 16:30:00,
2013-02-22 11:35:00,28.8,26.8,29.37,ESE,117,0.0,1.0,92,0.00,,,0.00,WeatherCatV1.02B3,2013-02-22 16:35:00,
2013-02-22 11:40:00,28.9,26.9,29.36,ESE,102,1.0,1.0,92,0.00,,,0.00,WeatherCatV1.02B3,2013-02-22 16:40:00,
2013-02-22 11:45:00,29.0,27.0,29.36,East,97,0.0,2.0,92,0.00,,,0.00,WeatherCatV1.02B3,2013-02-22 16:45:00,
2013-02-22 11:50:00,29.1,27.1,29.36,ESE,123,0.0,2.0,92,0.00,,,0.00,WeatherCatV1.02B3,2013-02-22 16:50:00,
2013-02-22 11:55:00,29.2,27.2,29.36,ESE,113,0.0,1.0,92,0.00,,,0.00,WeatherCatV1.02B3,2013-02-22 16:55:00,
2013-02-22 12:00:00,29.3,27.5,29.36,ESE,120,0.0,1.0,93,0.00,,,0.00,WeatherCatV1.02B3,2013-02-22 17:00:00,
2013-02-22 12:05:00,29.5,27.7,29.36,ESE,122,0.0,1.0,93,0.00,,,0.00,WeatherCatV1.02B3,2013-02-22 17:05:00,
2013-02-22 12:10:00,29.8,27.8,29.36,East,86,0.0,2.0,92,0.00,,,0.00,WeatherCatV1.02B3,2013-02-22 17:10:00,
2013-02-22 12:15:00,30.0,28.0,29.36,ESE,113,1.0,1.0,92,0.00,,,0.00,WeatherCatV1.02B3,2013-02-22 17:15:00,
2013-02-22 12:20:00,30.1,28.1,29.36,East,92,1.0,1.0,92,0.00,,,0.00,WeatherCatV1.02B3,2013-02-22 17:20:00,
2013-02-22 12:25:00,30.2,28.2,29.36,SE,130,0.0,1.0,92,0.00,,,0.00,WeatherCatV1.02B3,2013-02-22 17:25:00,
2013-02-22 12:26:00,30.3,28.5,29.36,SE,129,0.0,1.0,93,0.00,,,0.00,WeatherCatV1.02B3,2013-02-22 17:26:00,
2013-02-22 12:31:00,30.5,28.5,29.36,ESE,122,1.0,1.0,92,0.00,,,0.00,WeatherCatV1.02B3,2013-02-22 17:31:00,
2013-02-22 12:36:00,30.7,28.7,29.36,ESE,119,1.0,1.0,92,0.00,,,0.00,WeatherCatV1.02B3,2013-02-22 17:36:00,
2013-02-22 12:41:00,30.9,28.9,29.36,ESE,116,0.0,1.0,92,0.00,,,0.00,WeatherCatV1.02B3,2013-02-22 17:41:00,
2013-02-22 12:46:00,31.2,29.2,29.36,East,96,1.0,1.0,92,0.00,,,0.00,WeatherCatV1.02B3,2013-02-22 17:46:00,
2013-02-22 12:51:00,31.4,29.4,29.36,East,100,0.0,0.0,92,0.00,,,0.00,WeatherCatV1.02B3,2013-02-22 17:51:00,
2013-02-22 12:56:00,31.5,29.4,29.36,ESE,116,0.0,1.0,92,0.00,,,0.00,WeatherCatV1.02B3,2013-02-22 17:56:00,
2013-02-22 13:01:00,31.8,29.7,29.36,ESE,116,0.0,0.0,92,0.00,,,0.00,WeatherCatV1.02B3,2013-02-22 18:01:00,
2013-02-22 13:06:00,31.9,29.8,29.35,SE,132,0.0,1.0,92,0.00,,,0.00,WeatherCatV1.02B3,2013-02-22 18:06:00,
2013-02-22 13:11:00,31.8,29.7,29.35,SE,134,0.0,0.0,92,0.00,,,0.00,WeatherCatV1.02B3,2013-02-22 18:11:00,
2013-02-22 13:16:00,32.0,29.9,29.35,ESE,117,0.0,1.0,92,0.00,,,0.00,WeatherCatV1.02B3,2013-02-22 18:16:00,
2013-02-22 13:21:00,32.0,29.9,29.35,ESE,108,0.0,1.0,92,0.00,,,0.00,WeatherCatV1.02B3,2013-02-22 18:21:00,
2013-02-22 13:26:00,32.0,29.9,29.35,East,82,0.0,1.0,92,0.00,,,0.00,WeatherCatV1.02B3,2013-02-22 18:26:00,
2013-02-22 13:31:00,32.2,30.4,29.35,ENE,66,0.0,0.0,93,0.00,,,0.00,WeatherCatV1.02B3,2013-02-22 18:31:00,
2013-02-22 13:36:00,32.4,30.3,29.34,SW,226,1.0,2.0,92,0.00,,,0.00,WeatherCatV1.02B3,2013-02-22 18:36:00,
2013-02-22 13:41:00,32.4,30.3,29.34,SW,222,3.0,6.0,92,0.00,,,0.00,WeatherCatV1.02B3,2013-02-22 18:41:00,
2013-02-22 13:46:00,32.5,30.7,29.34,NW,324,0.0,0.0,93,0.00,,,0.00,WeatherCatV1.02B3,2013-02-22 18:46:00,
2013-02-22 13:51:00,32.5,30.7,29.34,SW,228,5.0,5.0,93,0.00,,,0.00,WeatherCatV1.02B3,2013-02-22 18:51:00,
2013-02-22 13:56:00,32.5,31.0,29.34,SSW,212,2.0,2.0,94,0.00,,,0.00,WeatherCatV1.02B3,2013-02-22 18:56:00,
2013-02-22 14:01:00,32.5,31.0,29.34,WNW,285,1.0,4.0,94,0.00,,,0.00,WeatherCatV1.02B3,2013-02-22 19:01:00,
2013-02-22 14:06:00,32.7,31.2,29.34,SSW,195,1.0,3.0,94,0.00,,,0.00,WeatherCatV1.02B3,2013-02-22 19:06:00,
2013-02-22 14:11:00,33.1,31.8,29.33,SSW,197,0.0,1.0,95,0.00,,,0.00,WeatherCatV1.02B3,2013-02-22 19:11:00,
2013-02-22 14:16:00,33.2,31.7,29.33,WSW,238,3.0,4.0,94,0.00,,,0.00,WeatherCatV1.02B3,2013-02-22 19:16:00,
2013-02-22 14:21:00,33.1,31.6,29.33,WSW,253,0.0,3.0,94,0.00,,,0.00,WeatherCatV1.02B3,2013-02-22 19:21:00,
2013-02-22 14:26:00,33.1,31.6,29.34,WSW,249,1.0,3.0,94,0.00,,,0.00,WeatherCatV1.02B3,2013-02-22 19:26:00,
2013-02-22 14:31:00,33.3,32.0,29.33,ESE,105,0.0,1.0,95,0.00,,,0.00,WeatherCatV1.02B3,2013-02-22 19:31:00,
2013-02-22 14:36:00,33.4,32.1,29.33,WSW,252,1.0,1.0,95,0.00,,,0.00,WeatherCatV1.02B3,2013-02-22 19:36:00,
2013-02-22 14:41:00,33.6,32.3,29.33,SSE,155,0.0,2.0,95,0.00,,,0.00,WeatherCatV1.02B3,2013-02-22 19:41:00,
2013-02-22 14:46:00,33.7,32.4,29.33,South,187,0.0,2.0,95,0.00,,,0.00,WeatherCatV1.02B3,2013-02-22 19:46:00,
2013-02-22 14:51:00,33.8,32.5,29.33,South,187,2.0,2.0,95,0.00,,,0.00,WeatherCatV1.02B3,2013-02-22 19:51:00,
2013-02-22 14:56:00,34.0,32.7,29.33,SSW,208,0.0,0.0,95,0.00,,,0.00,WeatherCatV1.02B3,2013-02-22 19:56:00,
2013-02-22 15:01:00,34.1,32.6,29.33,WSW,253,1.0,2.0,94,0.00,,,0.00,WeatherCatV1.02B3,2013-02-22 20:01:00,
2013-02-22 15:06:00,34.1,32.6,29.33,SSW,192,1.0,3.0,94,0.00,,,0.00,WeatherCatV1.02B3,2013-02-22 20:06:00,
2013-02-22 15:11:00,34.1,32.6,29.33,SW,235,0.0,1.0,94,0.00,,,0.00,WeatherCatV1.02B3,2013-02-22 20:11:00,
2013-02-22 15:16:00,34.1,32.6,29.33,SSW,194,1.0,4.0,94,0.00,,,0.00,WeatherCatV1.02B3,2013-02-22 20:16:00,
2013-02-22 15:21:00,34.1,32.8,29.33,WSW,250,2.0,2.0,95,0.00,,,0.00,WeatherCatV1.02B3,2013-02-22 20:21:00,
2013-02-22 15:26:00,34.2,32.7,29.33,WSW,247,3.0,4.0,94,0.00,,,0.00,WeatherCatV1.02B3,2013-02-22 20:26:00,
2013-02-22 15:31:00,34.3,33.0,29.33,SW,224,3.0,4.0,95,0.00,,,0.00,WeatherCatV1.02B3,2013-02-22 20:31:00,
2013-02-22 15:36:00,34.3,32.8,29.33,SW,223,5.0,7.0,94,0.00,,,0.00,WeatherCatV1.02B3,2013-02-22 20:36:00,
2013-02-22 15:41:00,34.3,32.8,29.33,SSW,200,2.0,4.0,94,0.00,,,0.00,WeatherCatV1.02B3,2013-02-22 20:41:00,
2013-02-22 15:46:00,34.3,32.8,29.33,SW,228,2.0,4.0,94,0.00,,,0.00,WeatherCatV1.02B3,2013-02-22 20:46:00,
2013-02-22 15:51:00,34.3,32.8,29.33,SW,221,2.0,5.0,94,0.00,,,0.00,WeatherCatV1.02B3,2013-02-22 20:51:00,
2013-02-22 15:56:00,34.3,32.8,29.33,WSW,243,1.0,2.0,94,0.00,,,0.00,WeatherCatV1.02B3,2013-02-22 20:56:00,
2013-02-22 16:01:00,34.3,32.5,29.33,SW,228,3.0,3.0,93,0.00,,,0.00,WeatherCatV1.02B3,2013-02-22 21:01:00,
2013-02-22 16:06:00,34.3,32.5,29.33,WSW,246,2.0,6.0,93,0.00,,,0.00,WeatherCatV1.02B3,2013-02-22 21:06:00,
2013-02-22 16:11:00,34.3,32.5,29.33,West,271,2.0,6.0,93,0.00,,,0.00,WeatherCatV1.02B3,2013-02-22 21:11:00,
2013-02-22 16:16:00,34.3,32.5,29.34,WSW,239,4.0,6.0,93,0.00,,,0.00,WeatherCatV1.02B3,2013-02-22 21:16:00,
2013-02-22 16:21:00,34.3,32.5,29.34,SW,217,5.0,8.0,93,0.00,,,0.00,WeatherCatV1.02B3,2013-02-22 21:21:00,
2013-02-22 16:26:00,34.3,32.5,29.34,WSW,250,7.0,9.0,93,0.00,,,0.00,WeatherCatV1.02B3,2013-02-22 21:26:00,
2013-02-22 16:31:00,34.3,32.5,29.34,WSW,256,4.0,6.0,93,0.00,,,0.00,WeatherCatV1.02B3,2013-02-22 21:31:00,
2013-02-22 16:36:00,34.3,32.5,29.34,SW,226,4.0,4.0,93,0.00,,,0.00,WeatherCatV1.02B3,2013-02-22 21:36:00,
2013-02-22 16:41:00,34.3,32.5,29.34,WSW,238,7.0,9.0,93,0.00,,,0.00,WeatherCatV1.02B3,2013-02-22 21:41:00,
2013-02-22 16:46:00,34.2,32.4,29.34,WSW,250,2.0,8.0,93,0.00,,,0.00,WeatherCatV1.02B3,2013-02-22 21:46:00,
2013-02-22 16:51:00,34.2,32.4,29.34,West,260,3.0,9.0,93,0.00,,,0.00,WeatherCatV1.02B3,2013-02-22 21:51:00,
2013-02-22 16:56:00,34.1,32.3,29.34,WSW,255,3.0,9.0,93,0.00,,,0.00,WeatherCatV1.02B3,2013-02-22 21:56:00,
2013-02-22 17:01:00,34.2,32.1,29.34,SW,228,5.0,8.0,92,0.00,,,0.00,WeatherCatV1.02B3,2013-02-22 22:01:00,
2013-02-22 17:06:00,34.2,32.1,29.34,West,266,4.0,8.0,92,0.00,,,0.00,WeatherCatV1.02B3,2013-02-22 22:06:00,
2013-02-22 17:11:00,34.1,32.0,29.35,WSW,250,2.0,4.0,92,0.00,,,0.00,WeatherCatV1.02B3,2013-02-22 22:11:00,
2013-02-22 17:16:00,34.0,32.2,29.35,SW,235,3.0,6.0,93,0.00,,,0.00,WeatherCatV1.02B3,2013-02-22 22:16:00,
2013-02-22 17:21:00,33.9,32.1,29.35,SW,226,7.0,8.0,93,0.00,,,0.00,WeatherCatV1.02B3,2013-02-22 22:21:00,
2013-02-22 17:26:00,33.8,32.0,29.35,SW,226,8.0,8.0,93,0.00,,,0.00,WeatherCatV1.02B3,2013-02-22 22:26:00,
2013-02-22 17:31:00,33.7,31.9,29.35,WSW,248,3.0,6.0,93,0.00,,,0.00,WeatherCatV1.02B3,2013-02-22 22:31:00,
2013-02-22 17:36:00,33.7,31.9,29.35,SW,235,5.0,9.0,93,0.00,,,0.00,WeatherCatV1.02B3,2013-02-22 22:36:00,
2013-02-22 17:41:00,33.8,31.7,29.35,West,259,5.0,12.0,92,0.00,,,0.00,WeatherCatV1.02B3,2013-02-22 22:41:00,
2013-02-22 17:46:00,33.9,31.6,29.35,West,262,3.0,9.0,91,0.00,,,0.00,WeatherCatV1.02B3,2013-02-22 22:46:00,
2013-02-22 17:51:00,33.8,31.5,29.35,SW,222,6.0,9.0,91,0.00,,,0.00,WeatherCatV1.02B3,2013-02-22 22:51:00,
2013-02-22 17:56:00,33.9,31.3,29.35,West,271,6.0,8.0,90,0.00,,,0.00,WeatherCatV1.02B3,2013-02-22 22:56:00,
2013-02-22 18:01:00,33.8,31.2,29.36,SW,225,6.0,8.0,90,0.00,,,0.00,WeatherCatV1.02B3,2013-02-22 23:01:00,
2013-02-22 18:06:00,33.8,31.2,29.36,West,266,5.0,7.0,90,0.00,,,0.00,WeatherCatV1.02B3,2013-02-22 23:06:00,
2013-02-22 18:11:00,33.9,31.0,29.36,West,280,4.0,8.0,89,0.00,,,0.00,WeatherCatV1.02B3,2013-02-22 23:11:00,
2013-02-22 18:16:00,33.9,31.0,29.36,WSW,242,3.0,6.0,89,0.00,,,0.00,WeatherCatV1.02B3,2013-02-22 23:16:00,
2013-02-22 18:21:00,33.9,30.7,29.36,SW,229,4.0,7.0,88,0.00,,,0.00,WeatherCatV1.02B3,2013-02-22 23:21:00,
2013-02-22 18:26:00,33.9,30.7,29.37,West,262,3.0,7.0,88,0.00,,,0.00,WeatherCatV1.02B3,2013-02-22 23:26:00,
2013-02-22 18:31:00,33.9,30.7,29.36,WSW,246,5.0,5.0,88,0.00,,,0.00,WeatherCatV1.02B3,2013-02-22 23:31:00,
2013-02-22 18:36:00,33.9,30.7,29.37,SW,236,4.0,7.0,88,0.00,,,0.00,WeatherCatV1.02B3,2013-02-22 23:36:00,
2013-02-22 18:41:00,33.9,30.7,29.37,West,274,2.0,8.0,88,0.00,,,0.00,WeatherCatV1.02B3,2013-02-22 23:41:00,
2013-02-22 18:46:00,33.8,30.6,29.37,WSW,243,4.0,5.0,88,0.00,,,0.00,WeatherCatV1.02B3,2013-02-22 23:46:00,
2013-02-22 18:51:00,33.7,30.5,29.37,WSW,245,4.0,4.0,88,0.00,,,0.00,WeatherCatV1.02B3,2013-02-22 23:51:00,
2013-02-22 18:56:00,33.7,30.2,29.37,West,264,4.0,8.0,87,0.00,,,0.00,WeatherCatV1.02B3,2013-02-22 23:56:00,
2013-02-22 19:01:00,33.7,30.2,29.37,SW,218,5.0,8.0,87,0.00,,,0.00,WeatherCatV1.02B3,2013-02-23 00:01:00,
2013-02-22 19:06:00,33.7,30.0,29.37,SW,217,3.0,6.0,86,0.00,,,0.00,WeatherCatV1.02B3,2013-02-23 00:06:00,
2013-02-22 19:11:00,33.6,29.9,29.38,SSW,205,5.0,7.0,86,0.00,,,0.00,WeatherCatV1.02B3,2013-02-23 00:11:00,
2013-02-22 19:16:00,33.6,29.9,29.38,SW,226,4.0,5.0,86,0.00,,,0.00,WeatherCatV1.02B3,2013-02-23 00:16:00,
2013-02-22 19:21:00,33.6,29.6,29.38,SW,235,5.0,5.0,85,0.00,,,0.00,WeatherCatV1.02B3,2013-02-23 00:21:00,
2013-02-22 19:26:00,33.5,29.5,29.38,WSW,252,4.0,7.0,85,0.00,,,0.00,WeatherCatV1.02B3,2013-02-23 00:26:00,
2013-02-22 19:31:00,33.5,29.2,29.39,SW,235,6.0,10.0,84,0.00,,,0.00,WeatherCatV1.02B3,2013-02-23 00:31:00,
2013-02-22 19:36:00,33.4,29.1,29.38,WSW,256,6.0,8.0,84,0.00,,,0.00,WeatherCatV1.02B3,2013-02-23 00:36:00,
2013-02-22 19:41:00,33.3,29.0,29.39,SW,231,4.0,8.0,84,0.00,,,0.00,WeatherCatV1.02B3,2013-02-23 00:41:00,
2013-02-22 19:46:00,33.0,28.4,29.39,WSW,254,8.0,12.0,83,0.00,,,0.00,WeatherCatV1.02B3,2013-02-23 00:46:00,
2013-02-22 19:51:00,32.6,28.0,29.39,WSW,238,7.0,11.0,83,0.00,,,0.00,WeatherCatV1.02B3,2013-02-23 00:51:00,
2013-02-22 19:57:00,32.3,27.7,29.39,WSW,248,4.0,8.0,83,0.00,,,0.00,WeatherCatV1.02B3,2013-02-23 00:57:00,
2013-02-22 20:02:00,32.2,27.9,29.39,WSW,250,5.0,8.0,84,0.00,,,0.00,WeatherCatV1.02B3,2013-02-23 01:02:00,
2013-02-22 20:07:00,32.1,27.5,29.39,WSW,249,4.0,11.0,83,0.00,,,0.00,WeatherCatV1.02B3,2013-02-23 01:07:00,
2013-02-22 20:12:00,32.0,27.4,29.40,WSW,242,7.0,7.0,83,0.00,,,0.00,WeatherCatV1.02B3,2013-02-23 01:12:00,
2013-02-22 20:17:00,31.9,27.3,29.39,SW,217,3.0,10.0,83,0.00,,,0.00,WeatherCatV1.02B3,2013-02-23 01:17:00,
2013-02-22 20:22:00,31.8,27.2,29.40,West,270,6.0,11.0,83,0.00,,,0.00,WeatherCatV1.02B3,2013-02-23 01:22:00,
2013-02-22 20:27:00,31.6,26.7,29.40,West,278,6.0,6.0,82,0.00,,,0.00,WeatherCatV1.02B3,2013-02-23 01:27:00,
2013-02-22 20:32:00,31.5,26.7,29.40,WSW,253,5.0,10.0,82,0.00,,,0.00,WeatherCatV1.02B3,2013-02-23 01:32:00,
2013-02-22 20:37:00,31.4,26.6,29.40,West,264,5.0,8.0,82,0.00,,,0.00,WeatherCatV1.02B3,2013-02-23 01:37:00,
2013-02-22 20:42:00,31.3,26.2,29.40,West,262,7.0,12.0,81,0.00,,,0.00,WeatherCatV1.02B3,2013-02-23 01:42:00,
2013-02-22 20:47:00,31.2,26.1,29.40,WSW,254,4.0,9.0,81,0.00,,,0.00,WeatherCatV1.02B3,2013-02-23 01:47:00,
2013-02-22 20:52:00,31.1,26.0,29.41,WSW,243,6.0,6.0,81,0.00,,,0.00,WeatherCatV1.02B3,2013-02-23 01:52:00,
2013-02-22 20:57:00,31.0,25.6,29.41,SW,224,5.0,8.0,80,0.00,,,0.00,WeatherCatV1.02B3,2013-02-23 01:57:00,
2013-02-22 21:02:00,31.0,25.6,29.41,WSW,249,6.0,12.0,80,0.00,,,0.00,WeatherCatV1.02B3,2013-02-23 02:02:00,
2013-02-22 21:07:00,31.0,25.6,29.42,West,262,6.0,7.0,80,0.00,,,0.00,WeatherCatV1.02B3,2013-02-23 02:07:00,
2013-02-22 21:12:00,30.9,24.9,29.41,West,278,6.0,16.0,78,0.00,,,0.00,WeatherCatV1.02B3,2013-02-23 02:12:00,
2013-02-22 21:17:00,31.0,24.7,29.41,WSW,245,8.0,10.0,77,0.00,,,0.00,WeatherCatV1.02B3,2013-02-23 02:17:00,
2013-02-22 21:22:00,30.9,24.6,29.42,WSW,255,3.0,6.0,77,0.00,,,0.00,WeatherCatV1.02B3,2013-02-23 02:22:00,
2013-02-22 21:27:00,30.8,24.8,29.41,WSW,243,5.0,7.0,78,0.00,,,0.00,WeatherCatV1.02B3,2013-02-23 02:27:00,
2013-02-22 21:32:00,30.7,24.7,29.41,SW,231,5.0,9.0,78,0.00,,,0.00,WeatherCatV1.02B3,2013-02-23 02:32:00,
2013-02-22 21:37:00,30.6,24.6,29.41,WSW,240,4.0,10.0,78,0.00,,,0.00,WeatherCatV1.02B3,2013-02-23 02:37:00,
2013-02-22 21:42:00,30.7,24.4,29.41,West,262,5.0,6.0,77,0.00,,,0.00,WeatherCatV1.02B3,2013-02-23 02:42:00,
2013-02-22 21:47:00,30.7,24.4,29.41,WSW,250,5.0,10.0,77,0.00,,,0.00,WeatherCatV1.02B3,2013-02-23 02:47:00,
2013-02-22 21:52:00,30.6,24.3,29.41,WSW,246,9.0,9.0,77,0.00,,,0.00,WeatherCatV1.02B3,2013-02-23 02:52:00,
2013-02-22 21:57:00,30.6,24.6,29.41,West,269,6.0,6.0,78,0.00,,,0.00,WeatherCatV1.02B3,2013-02-23 02:57:00,
2013-02-22 22:02:00,30.6,24.6,29.41,WSW,252,4.0,8.0,78,0.00,,,0.00,WeatherCatV1.02B3,2013-02-23 03:02:00,
2013-02-22 22:07:00,30.5,24.5,29.41,SW,217,6.0,9.0,78,0.00,,,0.00,WeatherCatV1.02B3,2013-02-23 03:07:00,
2013-02-22 22:12:00,30.5,24.5,29.41,WSW,248,3.0,9.0,78,0.00,,,0.00,WeatherCatV1.02B3,2013-02-23 03:12:00,
2013-02-22 22:17:00,30.4,24.7,29.41,West,262,6.0,8.0,79,0.00,,,0.00,WeatherCatV1.02B3,2013-02-23 03:17:00,
2013-02-22 22:22:00,30.4,25.0,29.41,SW,223,4.0,5.0,80,0.00,,,0.00,WeatherCatV1.02B3,2013-02-23 03:22:00,
2013-02-22 22:27:00,30.3,24.9,29.42,WSW,252,3.0,5.0,80,0.00,,,0.00,WeatherCatV1.02B3,2013-02-23 03:27:00,
2013-02-22 22:32:00,30.2,24.8,29.42,WSW,245,5.0,8.0,80,0.00,,,0.00,WeatherCatV1.02B3,2013-02-23 03:32:00,
2013-02-22 22:37:00,30.1,24.7,29.42,WSW,239,1.0,4.0,80,0.00,,,0.00,WeatherCatV1.02B3,2013-02-23 03:37:00,
2013-02-22 22:42:00,30.1,25.0,29.41,WSW,256,2.0,6.0,81,0.00,,,0.00,WeatherCatV1.02B3,2013-02-23 03:42:00,
2013-02-22 22:47:00,30.0,24.9,29.41,WSW,238,2.0,6.0,81,0.00,,,0.00,WeatherCatV1.02B3,2013-02-23 03:47:00,
2013-02-22 22:52:00,30.0,24.9,29.42,West,266,3.0,6.0,81,0.00,,,0.00,WeatherCatV1.02B3,2013-02-23 03:52:00,
2013-02-22 22:57:00,29.9,24.8,29.42,SW,218,6.0,6.0,81,0.00,,,0.00,WeatherCatV1.02B3,2013-02-23 03:57:00,
2013-02-22 23:02:00,29.8,24.7,29.42,WSW,239,4.0,4.0,81,0.00,,,0.00,WeatherCatV1.02B3,2013-02-23 04:02:00,
2013-02-22 23:07:00,29.8,25.0,29.42,West,262,4.0,4.0,82,0.00,,,0.00,WeatherCatV1.02B3,2013-02-23 04:07:00,
2013-02-22 23:12:00,29.7,24.9,29.41,WSW,254,3.0,6.0,82,0.00,,,0.00,WeatherCatV1.02B3,2013-02-23 04:12:00,
2013-02-22 23:17:00,29.6,24.8,29.41,WSW,252,2.0,3.0,82,0.00,,,0.00,WeatherCatV1.02B3,2013-02-23 04:17:00,
2013-02-22 23:22:00,29.6,24.8,29.41,WSW,239,4.0,7.0,82,0.00,,,0.00,WeatherCatV1.02B3,2013-02-23 04:22:00,
2013-02-22 23:27:00,29.5,24.7,29.41,WSW,257,3.0,5.0,82,0.00,,,0.00,WeatherCatV1.02B3,2013-02-23 04:27:00,
2013-02-22 23:32:00,29.5,24.7,29.41,SSW,211,2.0,5.0,82,0.00,,,0.00,WeatherCatV1.02B3,2013-02-23 04:32:00,
2013-02-22 23:37:00,29.5,25.0,29.41,SW,222,2.0,6.0,83,0.00,,,0.00,WeatherCatV1.02B3,2013-02-23 04:37:00,
2013-02-22 23:42:00,29.4,24.9,29.41,SW,231,3.0,5.0,83,0.00,,,0.00,WeatherCatV1.02B3,2013-02-23 04:42:00,
2013-02-22 23:47:00,29.4,24.9,29.41,WSW,245,3.0,8.0,83,0.00,,,0.00,WeatherCatV1.02B3,2013-02-23 04:47:00,
2013-02-22 23:52:00,29.4,24.9,29.42,WSW,242,4.0,7.0,83,0.00,,,0.00,WeatherCatV1.02B3,2013-02-23 04:52:00,
2013-02-22 23:57:00,29.4,24.9,29.41,WSW,242,2.0,5.0,83,0.00,,,0.00,WeatherCatV1.02B3,2013-02-23 04:57:00,